Location: Celina Division
(33.3022°N, 96.7580°W)
Time: 19:32:10
(UTC+00:00)

H-2A R/B (2) - Pass Details

Date: 01 July 2022
Orbit: 428 x 34396 km, 28.9° (Epoch: 07 August)

Event Time Altitude Azimuth Distance (km) Brightness Sun altitude
Rises 06:03:56 0° 125° (SE) 35,312 10.1 -33.2°
Reaches altitude 10° 07:27:18 10° 126° (SE) 38,659 10.4 -32.0°
Maximum altitude 11:42:15 38° 127° (SE) 20,554 9.6 3.0°
Drops below altitude 10° 12:41:35 10° 87° (E) 9,870 9.6 14.5°
Sets 12:46:56 0° 80° (E) 9,343 9.3 15.6°
